Location: Peterborough
(44.3091°N, 78.3197°W)
Time: 04:04:10
(UTC-04:00)

S-56A Canister/Altair - Pass Details

Date: 28 March 2023
Orbit: 639 x 2492 km, 38.9° (Epoch: 08 June)

Event Time Altitude Azimuth Distance (km) Brightness Sun altitude
Rises 22:18:09 0° 270° (W) 5,305 12.6 -27.7°
Reaches altitude 10° 22:21:19 10° 268° (W) 4,508 12.0 -28.2°
Maximum altitude 22:34:22 68° 189° (S) 2,559 9.8 -30.0°
Enters shadow 22:39:26 48° 128° (SE) 3,025 10.0 -30.7°
Drops below altitude 10° 22:49:17 10° 111° (ESE) 5,078 - -32.0°
Sets 22:53:05 0° 109° (ESE) 5,987 - -32.4°
